Whiteman AFB, MO

9:33 AM CST on February 23, 2018 (GMT -0600)
Whiteman Air Force Base

Weather History for KSZL - October, 2013

Change the Weather History Date:

Tuesday, October 15, 2013

  Actual Average Record
Temperature  
Mean Temperature 55 °F -  
Max Temperature 62 °F 65 °F 87 °F (1999)
Min Temperature 45 °F 45 °F 36 °F (2011)
Degree Days  
Heating Degree Days 10    
Growing Degree Days 5 (Base 50)    
Moisture  
Dew Point 51 °F    
Average Humidity 79    
Maximum Humidity 97    
Minimum Humidity 49    
Precipitation  
Precipitation 0.24 in - - ()
Sea Level Pressure  
Sea Level Pressure 29.96 in    
Wind  
Wind Speed 10 mph (West)    
Max Wind Speed 14 mph    
Max Gust Speed 21 mph    
Visibility 9 miles    
Events Rain    
Averages and records for this station are not official NWS values.
T = Trace of Precipitation, MM = Missing Value Source: NWS Daily Summary

Daily Weather History Graph

Daily Weather History Graph

Search for Another Location

Airport or City:

Trip Planner

Search our weather history database for the weather conditions in past years. The results will help you decide how hot, cold, wet, or windy it might be!

Date:

Astronomy

Oct. 15, 2013 Rise Set
Actual Time 7:23 AM CDT 6:35 PM CDT
Civil Twilight 6:56 AM CDT 7:02 PM CDT
Nautical Twilight 6:26 AM CDT 7:33 PM CDT
Astronomical Twilight 5:55 AM CDT 8:03 PM CDT
Moon 4:39 PM CDT (10/15) 3:49 AM CDT (10/15)
Length of Visible Light 12h 05m
Length of Day
11h 11m
Waxing Gibbous, 88% of the Moon is Illuminated
Oct 15
Waxing Gibbous
Oct 18
Full
Oct 26
Last Quarter
Nov 3
New
Nov 9
First Quarter

Hourly Weather History & Observations

Time (CDT) Temp. Windchill Dew Point Humidity Pressure Visibility Wind Dir Wind Speed Gust Speed Precip Events Conditions
12:28 AM 62.6 °F - 59.0 °F 88% 29.92 in 10.0 mi South 13.8 mph 19.6 mph N/A Rain Light Rain
12:38 AM 62.6 °F - 60.8 °F 94% 29.93 in 5.0 mi South 11.5 mph 19.6 mph N/A Rain Rain
12:43 AM 62.6 °F - 60.8 °F 94% 29.92 in 3.0 mi South 10.4 mph - N/A Rain Rain
12:58 AM 61.9 °F - 60.4 °F 95% 29.91 in 6.0 mi SSE 11.5 mph - 0.10 in Rain Light Rain
1:58 AM 61.7 °F - 60.1 °F 94% 29.89 in 9.0 mi South 11.5 mph 20.7 mph 0.08 in Rain Light Rain
2:27 AM 60.8 °F - 59.0 °F 94% 29.89 in 10.0 mi South 12.7 mph - N/A   Overcast
2:58 AM 61.7 °F - 59.9 °F 94% 29.91 in 9.0 mi SW 10.4 mph - 0.01 in Rain Light Rain
3:42 AM 60.8 °F - 59.0 °F 94% 29.92 in 7.0 mi West 5.8 mph - N/A   Light Drizzle
3:58 AM 60.6 °F - 59.7 °F 97% 29.92 in 6.0 mi West 4.6 mph - 0.02 in   Light Drizzle
4:29 AM 60.8 °F - 59.0 °F 94% 29.90 in 9.0 mi South 6.9 mph - N/A   Light Drizzle
4:58 AM 60.1 °F - 58.5 °F 94% 29.90 in 9.0 mi South 6.9 mph - 0.01 in   Light Drizzle
5:21 AM 60.8 °F - 59.0 °F 94% 29.88 in 9.0 mi SSE 8.1 mph - N/A Rain Light Rain
5:58 AM 59.4 °F - 57.6 °F 94% 29.90 in 10.0 mi SSW 5.8 mph - 0.02 in   Mostly Cloudy
6:58 AM 58.8 °F - 56.8 °F 93% 29.91 in 10.0 mi WSW 8.1 mph - N/A   Mostly Cloudy
7:58 AM 57.9 °F - 54.0 °F 87% 29.94 in 10.0 mi NW 12.7 mph - N/A   Overcast
8:18 AM 55.4 °F - 51.8 °F 88% 29.94 in 10.0 mi NW 9.2 mph - N/A   Overcast
8:23 AM 55.4 °F - 51.8 °F 88% 29.95 in 10.0 mi NW 9.2 mph - N/A   Overcast
8:58 AM 54.7 °F - 50.5 °F 86% 29.97 in 10.0 mi WNW 5.8 mph - N/A   Mostly Cloudy
9:58 AM 54.3 °F - 48.6 °F 81% 29.99 in 10.0 mi WNW 8.1 mph - N/A   Scattered Clouds
10:13 AM 53.6 °F - 48.2 °F 82% 29.98 in 10.0 mi NW 10.4 mph - N/A   Scattered Clouds
10:23 AM 53.6 °F - 48.2 °F 82% 29.98 in 10.0 mi WNW 6.9 mph - N/A   Mostly Cloudy
10:58 AM 54.7 °F - 48.4 °F 79% 29.99 in 10.0 mi West 8.1 mph - N/A   Mostly Cloudy
11:58 AM 56.7 °F - 47.8 °F 72% 29.99 in 10.0 mi West 11.5 mph - N/A   Mostly Cloudy
12:03 PM 57.2 °F - 48.2 °F 72% 29.98 in 10.0 mi West 10.4 mph - N/A   Scattered Clouds
12:58 PM 59.5 °F - 46.8 °F 63% 29.97 in 10.0 mi West 10.4 mph - N/A   Scattered Clouds
1:58 PM 62.2 °F - 45.3 °F 54% 29.95 in 10.0 mi West 12.7 mph - N/A   Scattered Clouds
2:58 PM 61.5 °F - 44.2 °F 53% 29.96 in 10.0 mi West 12.7 mph - N/A   Scattered Clouds
3:58 PM 61.9 °F - 43.5 °F 51% 29.96 in 10.0 mi West 10.4 mph - N/A   Scattered Clouds
4:58 PM 62.2 °F - 43.0 °F 49% 29.98 in 10.0 mi West 11.5 mph - N/A   Clear
5:58 PM 58.8 °F - 42.3 °F 54% 29.98 in 10.0 mi West 8.1 mph - N/A   Scattered Clouds
6:58 PM 56.7 °F - 41.5 °F 57% 30.00 in 10.0 mi WNW 9.2 mph - N/A   Scattered Clouds
7:58 PM 54.0 °F - 42.1 °F 64% 30.03 in 10.0 mi West 6.9 mph - N/A   Scattered Clouds
8:58 PM 52.7 °F - 41.0 °F 64% 30.05 in 10.0 mi WNW 12.7 mph - N/A   Clear
9:18 PM 51.8 °F - 41.0 °F 67% 30.05 in 9.0 mi NW 12.7 mph - N/A   Clear
9:58 PM 50.5 °F - 39.4 °F 66% 30.06 in 8.0 mi NW 12.7 mph - N/A   Clear
10:58 PM 48.2 °F - 39.2 °F 71% 30.07 in 10.0 mi WNW 6.9 mph - N/A   Clear
11:58 PM 45.1 °F 42.0 °F 39.2 °F 80% 30.07 in 10.0 mi West 5.8 mph - N/A   Clear